Weather in Somoniyon

Tajikistan     38°26′19″N   68°46′17″E
temp.,
°C
wind,
m/s
gust,
m/s
humid.,
%
clouds,
%
prec.,
mm/h
press.,
hPa
HPBL,
m
22 april, thu
thu2223:00+10e11750 0.3 101512
02:00+8ene22753 0.2 101716
05:00+8ene227019 0.2 101918
08:00+12e23575 0.0 1020259
11:00+18se34396 0.0 10201838
14:00+19se23348 0.0 10202117
17:00+19ssw12352 0.0 10191623
20:00+13e11490 0.0 102112
23 april, fri
fri2323:00+10ene22540 0.0 102315
02:00+9ene22450 0.0 102317
05:00+8ene22420 0.0 102312
08:00+12e12400 0.0 1023188
11:00+19se01330 0.0 1022784
14:00+21e11290 0.0 10191796
17:00+21se12300 0.0 10181353
20:00+14ne11420 0.0 101911
24 april, sat
sat2423:00+11ene22510 0.0 102014
02:00+10e114652 0.0 101912
05:00+9e114099 0.0 101912
08:00+14ese1240100 0.0 1020114
11:00+21e11278 0.0 1019680
14:00+24ne112038 0.0 10171462
17:00+23ene112475 0.0 10171106
20:00+16ene113399 0.0 101911
25 april, sun
sun2523:00+14ene114194 0.0 102011
02:00+12e1149100 0.0 101912
05:00+12e1148100 0.0 101811
08:00+17ese1145100 0.0 1019121
11:00+22sse0132100 0.0 1018536
14:00+26e112281 0.0 10161140
17:00+26ne11261 0.0 1015706
20:00+18ene11346 0.0 101611
26 april, mon
mon2623:00+15e114514 0.0 101711
02:00+14e115024 0.0 101612
05:00+13e1148100 0.0 101511
08:00+18ese1145100 0.0 101684
11:00+24ese1134100 0.0 1014441
14:00+27e1126100 0.0 10121182
17:00+26ene0139100 0.0 1011179
20:00+20nne114251 0.0 101211